Location: Saratoga Springs
(43.0831°N, 73.7850°W)
Time: 16:16:28
(UTC-04:00)

Tiros 1 - Pass Details

Date: 23 April 2024
Orbit: 624 x 657 km, 48.4° (Epoch: 28 May)

Event Time Altitude Azimuth Distance (km) Brightness Sun altitude
Rises 00:27:43 0° 245° (WSW) 2,934 - -33.9°
Reaches altitude 10° 00:30:03 10° 246° (WSW) 2,021 - -34.0°
Maximum altitude 00:34:43 85° 335° (NNW) 640 - -34.1°
Drops below altitude 10° 00:39:21 10° 64° (ENE) 2,008 - -34.1°
Exits shadow 00:40:53 - 65° (ENE) 2,603 10.5 -34.1°
Sets 00:41:40 0° 65° (ENE) 2,913 10.8 -34.2°
